Overview Statistics Trail Chart Weather Telemetry Raw packets
 

This is the latest recevied weather packets stored in our database for station/object OE6JVE-13. If no packets are shown the sender has not sent any weather packets the latest 10 day(s).

<< 35 36 37 38 39 40 41 >>
Time Temp. Humidity Pressure Rain* Wind** Luminosity Snow
1788098466 31.11° C 34% 1006.8 hPa 0 mm - - -
1788097981 30.56° C 37% 1006.8 hPa 0 mm - - -
1788097217 31.11° C 37% 1007 hPa 0 mm - - -
1788096624 30.56° C 37% 1007.2 hPa 0 mm - - -
1788096032 30.56° C 36% 1007.2 hPa 0 mm - - -
1788095440 30.56° C 35% 1007.2 hPa 0 mm - - -
1788094849 30.56° C 35% 1007.3 hPa 0 mm - - -
1788094256 30.56° C 36% 1007.4 hPa 0 mm - - -
1788093665 30° C 36% 1007.5 hPa 0 mm - - -
1788093076 30° C 37% 1007.5 hPa 0 mm - - -
1788092479 29.44° C 37% 1007.5 hPa 0 mm - - -
1788091843 30° C 36% 1007.6 hPa 0 mm - - -
1788091232 30° C 36% 1007.9 hPa 0 mm - - -
1788090638 30° C 37% 1008 hPa 0 mm - - -
1788090046 29.44° C 36% 1008.1 hPa 0 mm - - -
1788089453 29.44° C 37% 1008.2 hPa 0 mm - - -
1788088862 29.44° C 37% 1008.3 hPa 0 mm - - -
1788088269 29.44° C 38% 1008.5 hPa 0 mm - - -
1788087677 28.89° C 37% 1008.4 hPa 0 mm - - -
1788087019 28.89° C 39% 1008.5 hPa 0 mm - - -
1788086427 28.89° C 39% 1008.7 hPa 0 mm - - -
1788085835 28.33° C 40% 1008.8 hPa 0 mm - - -
1788085243 28.33° C 40% 1008.9 hPa 0 mm - - -
1788084651 27.78° C 41% 1009 hPa 0 mm - - -
1788084059 27.78° C 41% 1009.2 hPa 0 mm - - -

* Rain latest hour (hover to see other rain measurements)
** Current wind speed in m/s (hover to see current wind gust speed)